Weather History for Melbourne, FL

Change the Weather History Date:

Tuesday, April 16, 2013

  Actual Average Record
Temperature  
Mean Temperature 77 °F 70 °F  
Max Temperature 83 °F 81 °F 93 °F (1972)
Min Temperature 71 °F 60 °F 46 °F (2007)
Degree Days  
Heating Degree Days 0 0  
Month to date heating degree days 0 15  
Since 1 July heating degree days 463 575  
Cooling Degree Days 12 6  
Month to date cooling degree days 146 79  
Year to date cooling degree days 404 276  
Growing Degree Days 28 (Base 50)    
Moisture  
Dew Point 68 °F    
Average Humidity 78    
Maximum Humidity 93    
Minimum Humidity 62    
Precipitation  
Precipitation 0.00 in 0.07 in 1.31 in (1997)
Month to date precipitation 4.58 1.22  
Year to date precipitation 7.82 9.30  
Sea Level Pressure  
Sea Level Pressure 30.11 in    
Wind  
Wind Speed 11 mph (NE)    
Max Wind Speed 18 mph    
Max Gust Speed 23 mph    
Visibility 10 miles    
Events      
T = Trace of Precipitation, MM = Missing Value Source: NWS Daily Summary

Daily Weather History Graph

Daily Weather History Graph

Search for Another Location

Airport:

Trip Planner

Search our weather history database for the weather conditions in past years. The results will help you decide how hot, cold, wet, or windy it might be!

Date:

Astronomy

Apr. 16, 2013 Rise Set
Actual Time 6:56 AM EDT 7:48 PM EDT
Civil Twilight 6:32 AM EDT 8:12 PM EDT
Nautical Twilight 6:03 AM EDT 8:41 PM EDT
Astronomical Twilight 5:34 AM EDT 9:10 PM EDT
Moon 11:26 AM EDT (4/16) 12:31 AM EDT (4/16)
Length of Visible Light 13h 40m
Length of Day
12h 52m
Waxing Crescent, 33% of the Moon is Illuminated
Apr 16
Waxing Crescent
Apr 18
First Quarter
Apr 25
Full
May 2
Last Quarter
May 9
New

Hourly Weather History & Observations

Time (EDT) Temp. Heat Index Dew Point Humidity Pressure Visibility Wind Dir Wind Speed Gust Speed Precip Events Conditions
12:53 AM 75.0 °F - 69.1 °F 82% 30.08 in 10.0 mi Calm Calm - N/A   Mostly Cloudy
1:53 AM 73.9 °F - 66.9 °F 79% 30.07 in 10.0 mi NE 3.5 mph - N/A   Clear
2:53 AM 73.0 °F - 66.9 °F 81% 30.06 in 10.0 mi NNE 3.5 mph - N/A   Clear
3:35 AM 73.4 °F - 68.0 °F 83% 30.06 in 10.0 mi Calm Calm - N/A   Mostly Cloudy
3:53 AM 73.0 °F - 69.1 °F 87% 30.06 in 10.0 mi North 3.5 mph - N/A   Overcast
4:53 AM 73.9 °F - 70.0 °F 87% 30.06 in 10.0 mi NNE 5.8 mph - N/A   Mostly Cloudy
5:20 AM 73.4 °F - 71.6 °F 94% 30.06 in 10.0 mi NNE 6.9 mph - N/A   Scattered Clouds
5:53 AM 73.9 °F - 71.1 °F 91% 30.07 in 10.0 mi NE 8.1 mph - N/A   Partly Cloudy
6:53 AM 75.0 °F - 71.1 °F 87% 30.09 in 10.0 mi ENE 8.1 mph - N/A   Clear
8:53 AM 78.1 °F - 71.1 °F 79% 30.13 in 10.0 mi NE 10.4 mph - N/A   Scattered Clouds
9:53 AM 80.1 °F 83.2 °F 70.0 °F 71% 30.14 in 10.0 mi ENE 11.5 mph - N/A   Scattered Clouds
10:53 AM 81.0 °F 84.4 °F 70.0 °F 69% 30.15 in 10.0 mi NE 13.8 mph - N/A   Clear
11:53 AM 81.0 °F 84.1 °F 69.1 °F 67% 30.16 in 10.0 mi NE 13.8 mph - N/A   Partly Cloudy
12:53 PM 81.0 °F 84.1 °F 69.1 °F 67% 30.16 in 10.0 mi NE 12.7 mph - N/A   Scattered Clouds
1:53 PM 82.0 °F 84.9 °F 68.0 °F 62% 30.14 in 10.0 mi ENE 12.7 mph - N/A   Partly Cloudy
2:53 PM 82.0 °F 84.9 °F 68.0 °F 62% 30.13 in 10.0 mi ENE 13.8 mph - N/A   Partly Cloudy
3:53 PM 81.0 °F 83.3 °F 66.9 °F 62% 30.12 in 10.0 mi NE 13.8 mph - N/A   Partly Cloudy
4:53 PM 80.1 °F 82.3 °F 66.9 °F 64% 30.12 in 10.0 mi NE 16.1 mph - N/A   Clear
5:53 PM 79.0 °F - 66.9 °F 66% 30.12 in 10.0 mi NE 15.0 mph - N/A   Clear
6:53 PM 78.1 °F - 66.0 °F 66% 30.13 in 10.0 mi ENE 15.0 mph - N/A   Clear
7:53 PM 75.9 °F - 66.0 °F 71% 30.14 in 10.0 mi NE 15.0 mph - N/A   Clear
8:53 PM 75.9 °F - 66.9 °F 74% 30.15 in 10.0 mi ENE 12.7 mph - N/A   Clear
9:53 PM 75.0 °F - 66.0 °F 73% 30.16 in 10.0 mi ENE 13.8 mph - N/A   Clear
10:53 PM 75.0 °F - 66.0 °F 73% 30.15 in 10.0 mi ENE 11.5 mph - N/A   Clear
11:53 PM 75.0 °F - 66.9 °F 76% 30.14 in 10.0 mi ENE 10.4 mph - N/A   Clear